Home > Products > Valid Products > RWR

000
ASUS44 KOHX 250010
RWROHX
MIDDLE TENNESSEE HOURLY WEATHER ROUNDUP
NATIONAL WEATHER SERVICE NASHVILLE TN
700 PM CDT TUE MAY 24 2016

NOTE: "FAIR" INDICATES FEW OR NO CLOUDS BELOW 12,000 FEET WITH
NO SIGNIFICANT WEATHER AND/OR OBSTRUCTIONS TO VISIBILITY.

* THESE REPORTS ARE NOT UNDER NWS QUALITY CONTROL AND MAY NOT
  REPORT WEATHER SUCH AS PRECIPITATION AND FOG.


TNZ005>011-023>034-057-059-062>066-078-080-250100
...NORTHERN MIDDLE TENNESSEE...

CITY           SKY/WX    TMP DP  RH WIND       PRES   REMARKS
CLARKSVILLE    MOCLDY    78  59  51 S7        30.07R
CROSSVILLE     CLEAR     74  50  42 NW5       30.16R
DICKSON        PTCLDY    79  61  53 CALM      30.09R
NASHVILLE      PTCLDY    83  53  35 W5        30.09R
SMYRNA         CLEAR     83  54  36 W8        30.09R
SPARTA         PTCLDY    79  61  53 CALM      30.10S
$$
TNZ056-058-060-061-075>077-079-093>097-250100
...SOUTHERN MIDDLE TENNESSEE...

CITY           SKY/WX    TMP DP  RH WIND       PRES   REMARKS
COLUMBIA       CLEAR     81  64  57 CALM      30.08R
FAYETTEVILLE   CLEAR     81  55  41 S6        30.11R
LEWISBURG      PTCLDY    83  55  37 SW5       30.09R
MCMINNVILLE    PTCLDY    81  57  44 CALM      30.12R
SHELBYVILLE    CLEAR     82  55  39 S5        30.11R
TULLAHOMA      PTCLDY    79  52  38 SW3       30.12R
WINCHESTER     CLEAR     81  52  36 SW5       30.11R
$$


...KEY TO REMARKS...
VSB - VISIBILITY IN MILES
WCI - WIND CHILL INDEX
HX  - HEAT INDEX







000
ASUS44 KOHX 242310
RWROHX
MIDDLE TENNESSEE HOURLY WEATHER ROUNDUP
NATIONAL WEATHER SERVICE NASHVILLE TN
600 PM CDT TUE MAY 24 2016

NOTE: "FAIR" INDICATES FEW OR NO CLOUDS BELOW 12,000 FEET WITH
NO SIGNIFICANT WEATHER AND/OR OBSTRUCTIONS TO VISIBILITY.

* THESE REPORTS ARE NOT UNDER NWS QUALITY CONTROL AND MAY NOT
  REPORT WEATHER SUCH AS PRECIPITATION AND FOG.


TNZ005>011-023>034-057-059-062>066-078-080-250000
...NORTHERN MIDDLE TENNESSEE...

CITY           SKY/WX    TMP DP  RH WIND       PRES   REMARKS
CLARKSVILLE    SUNNY     81  57  43 SW7       30.06R
CROSSVILLE     SUNNY     78  50  37 N5        30.14F
DICKSON        SUNNY     81  57  44 SW5       30.08R
LEBANON        MOSUNNY   85  54  34 CALM      30.06S
NASHVILLE      MOSUNNY   85  51  31 SW3       30.07S
SMYRNA         SUNNY     85  54  34 SW5       30.07F
SPARTA         SUNNY     84  54  34 SW5       30.09S
$$
TNZ056-058-060-061-075>077-079-093>097-250000
...SOUTHERN MIDDLE TENNESSEE...

CITY           SKY/WX    TMP DP  RH WIND       PRES   REMARKS
COLUMBIA       SUNNY     84  61  45 S5        30.06R
FAYETTEVILLE   SUNNY     82  52  34 SW7       30.09S
LEWISBURG      SUNNY     83  54  36 SW5       30.07S
MCMINNVILLE    SUNNY     82  54  36 CALM      30.10S
SHELBYVILLE    SUNNY     84  54  34 S7        30.09S
TULLAHOMA      SUNNY     81  46  30 S7        30.10F
WINCHESTER     SUNNY     84  52  32 S7        30.09S
$$


...KEY TO REMARKS...
VSB - VISIBILITY IN MILES
WCI - WIND CHILL INDEX
HX  - HEAT INDEX







000
ASUS44 KOHX 241810
RWROHX
MIDDLE TENNESSEE HOURLY WEATHER ROUNDUP
NATIONAL WEATHER SERVICE NASHVILLE TN
100 PM CDT TUE MAY 24 2016

NOTE: "FAIR" INDICATES FEW OR NO CLOUDS BELOW 12,000 FEET WITH
NO SIGNIFICANT WEATHER AND/OR OBSTRUCTIONS TO VISIBILITY.

* THESE REPORTS ARE NOT UNDER NWS QUALITY CONTROL AND MAY NOT
  REPORT WEATHER SUCH AS PRECIPITATION AND FOG.


TNZ005>011-023>034-057-059-062>066-078-080-241900
...NORTHERN MIDDLE TENNESSEE...

CITY           SKY/WX    TMP DP  RH WIND       PRES   REMARKS
CLARKSVILLE    MOSUNNY   80  58  46 SW9       30.10F
CROSSVILLE     MOSUNNY   79  48  33 NW8       30.19S
DICKSON        MOSUNNY   82  55  39 SW7       30.12F
NASHVILLE      CLOUDY    85  49  28 W5        30.12F
SMYRNA         MOSUNNY   83  55  37 VRB5      30.12F
SPARTA         SUNNY     84  54  34 W7        30.15R
$$
TNZ056-058-060-061-075>077-079-093>097-241900
...SOUTHERN MIDDLE TENNESSEE...

CITY           SKY/WX    TMP DP  RH WIND       PRES   REMARKS
COLUMBIA       SUNNY     82  57  42 S9        30.11F
FAYETTEVILLE   SUNNY     82  54  36 VRB5G14   30.14F
LEWISBURG      CLOUDY    86  54  33 SW9       30.12F
MCMINNVILLE    SUNNY     82  54  36 S6        30.15S
SHELBYVILLE    SUNNY     86  54  32 SW7       30.13F
TULLAHOMA      SUNNY     81  48  32 VRB5      30.16S
WINCHESTER     MOSUNNY   84  52  32 S8        30.14F
$$


...KEY TO REMARKS...
VSB - VISIBILITY IN MILES
WCI - WIND CHILL INDEX
HX  - HEAT INDEX







000
ASUS44 KOHX 241710
RWROHX
MIDDLE TENNESSEE HOURLY WEATHER ROUNDUP
NATIONAL WEATHER SERVICE NASHVILLE TN
1200 PM CDT TUE MAY 24 2016

NOTE: "FAIR" INDICATES FEW OR NO CLOUDS BELOW 12,000 FEET WITH
NO SIGNIFICANT WEATHER AND/OR OBSTRUCTIONS TO VISIBILITY.

* THESE REPORTS ARE NOT UNDER NWS QUALITY CONTROL AND MAY NOT
  REPORT WEATHER SUCH AS PRECIPITATION AND FOG.


TNZ005>011-023>034-057-059-062>066-078-080-241800
...NORTHERN MIDDLE TENNESSEE...

CITY           SKY/WX    TMP DP  RH WIND       PRES   REMARKS
CLARKSVILLE    CLOUDY    78  58  49 SW8       30.11S
CROSSVILLE     SUNNY     76  46  34 VRB6      30.19S
DICKSON        CLOUDY    81  57  44 S6        30.13S
NASHVILLE      MOSUNNY   85  51  31 S9        30.13S
SMYRNA         MOSUNNY   84  55  36 VRB3      30.13F
SPARTA         SUNNY     82  54  36 NW3       30.15S
$$
TNZ056-058-060-061-075>077-079-093>097-241800
...SOUTHERN MIDDLE TENNESSEE...

CITY           SKY/WX    TMP DP  RH WIND       PRES   REMARKS
COLUMBIA       SUNNY     81  57  44 SW8       30.12S
FAYETTEVILLE   SUNNY     81  54  39 SW5G13    30.15F
LEWISBURG      SUNNY     83  55  37 S7        30.13S
MCMINNVILLE    SUNNY     81  54  39 VRB3      30.15S
SHELBYVILLE    SUNNY     84  55  37 VRB7      30.15S
TULLAHOMA      SUNNY     81  52  36 SW8       30.16S
WINCHESTER     MOSUNNY   81  55  41 VRB5      30.15F
$$


...KEY TO REMARKS...
VSB - VISIBILITY IN MILES
WCI - WIND CHILL INDEX
HX  - HEAT INDEX







000
ASUS44 KOHX 241610
RWROHX
MIDDLE TENNESSEE HOURLY WEATHER ROUNDUP
NATIONAL WEATHER SERVICE NASHVILLE TN
1100 AM CDT TUE MAY 24 2016

NOTE: "FAIR" INDICATES FEW OR NO CLOUDS BELOW 12,000 FEET WITH
NO SIGNIFICANT WEATHER AND/OR OBSTRUCTIONS TO VISIBILITY.

* THESE REPORTS ARE NOT UNDER NWS QUALITY CONTROL AND MAY NOT
  REPORT WEATHER SUCH AS PRECIPITATION AND FOG.


TNZ005>011-023>034-057-059-062>066-078-080-241700
...NORTHERN MIDDLE TENNESSEE...

CITY           SKY/WX    TMP DP  RH WIND       PRES   REMARKS
CLARKSVILLE    CLOUDY    76  58  53 S7        30.11S
CROSSVILLE     SUNNY     76  48  37 N7        30.19S
DICKSON        CLOUDY    77  57  50 S5        30.13R
LEBANON        SUNNY     79  54  41 S5        30.12S
NASHVILLE      MOSUNNY   82  51  34 S7        30.13S
SMYRNA         SUNNY     80  57  45 S5        30.14S
SPARTA         SUNNY     81  52  36 S3        30.15S
$$
TNZ056-058-060-061-075>077-079-093>097-241700
...SOUTHERN MIDDLE TENNESSEE...

CITY           SKY/WX    TMP DP  RH WIND       PRES   REMARKS
COLUMBIA       SUNNY     82  61  47 S6        30.12R
FAYETTEVILLE   SUNNY     79  55  44 VRB7      30.15S
LEWISBURG      SUNNY     81  58  45 S5        30.13S
MCMINNVILLE    SUNNY     81  54  39 S5        30.15F
SHELBYVILLE    SUNNY     82  55  39 VRB5      30.15S
TULLAHOMA      SUNNY     79  54  41 CALM      30.16S
WINCHESTER     SUNNY     79  55  44 VRB6      30.16S
$$


...KEY TO REMARKS...
VSB - VISIBILITY IN MILES
WCI - WIND CHILL INDEX
HX  - HEAT INDEX







000
ASUS44 KOHX 241510
RWROHX
MIDDLE TENNESSEE HOURLY WEATHER ROUNDUP
NATIONAL WEATHER SERVICE NASHVILLE TN
1000 AM CDT TUE MAY 24 2016

NOTE: "FAIR" INDICATES FEW OR NO CLOUDS BELOW 12,000 FEET WITH
NO SIGNIFICANT WEATHER AND/OR OBSTRUCTIONS TO VISIBILITY.

* THESE REPORTS ARE NOT UNDER NWS QUALITY CONTROL AND MAY NOT
  REPORT WEATHER SUCH AS PRECIPITATION AND FOG.


TNZ005>011-023>034-057-059-062>066-078-080-241600
...NORTHERN MIDDLE TENNESSEE...

CITY           SKY/WX    TMP DP  RH WIND       PRES   REMARKS
CLARKSVILLE    CLOUDY    75  58  55 S5        30.11R
CROSSVILLE     SUNNY     76  49  38 W6        30.19S
DICKSON        CLOUDY    75  57  53 SW6       30.12R
LEBANON        PTSUNNY   76  54  46 S3        30.12S
NASHVILLE      PTSUNNY   76  52  43 VRB3      30.13S
SMYRNA         PTSUNNY   75  57  53 VRB5      30.14S
SPARTA         SUNNY     75  57  53 SW5       30.14F
$$
TNZ056-058-060-061-075>077-079-093>097-241600
...SOUTHERN MIDDLE TENNESSEE...

CITY           SKY/WX    TMP DP  RH WIND       PRES   REMARKS
COLUMBIA       SUNNY     79  63  57 SW6       30.11S
FAYETTEVILLE   SUNNY     75  57  53 S6        30.15S
LEWISBURG      PTSUNNY   75  58  55 VRB3      30.13R
MCMINNVILLE    SUNNY     77  57  50 SW3       30.15S
SHELBYVILLE    SUNNY     79  57  47 VRB3      30.15S
TULLAHOMA      SUNNY     73  55  53 S3        30.16S
WINCHESTER     SUNNY     75  54  46 SE6       30.16R
$$


...KEY TO REMARKS...
VSB - VISIBILITY IN MILES
WCI - WIND CHILL INDEX
HX  - HEAT INDEX







000
ASUS44 KOHX 241410
RWROHX
MIDDLE TENNESSEE HOURLY WEATHER ROUNDUP
NATIONAL WEATHER SERVICE NASHVILLE TN
900 AM CDT TUE MAY 24 2016

NOTE: "FAIR" INDICATES FEW OR NO CLOUDS BELOW 12,000 FEET WITH
NO SIGNIFICANT WEATHER AND/OR OBSTRUCTIONS TO VISIBILITY.

* THESE REPORTS ARE NOT UNDER NWS QUALITY CONTROL AND MAY NOT
  REPORT WEATHER SUCH AS PRECIPITATION AND FOG.


TNZ005>011-023>034-057-059-062>066-078-080-241500
...NORTHERN MIDDLE TENNESSEE...

CITY           SKY/WX    TMP DP  RH WIND       PRES   REMARKS
CLARKSVILLE    MOSUNNY   72  55  55 SE5       30.10R
CROSSVILLE     SUNNY     73  51  46 VRB5      30.19R
DICKSON        MOSUNNY   72  55  56 S6        30.11R
LEBANON        SUNNY     69  54  58 CALM      30.12R
NASHVILLE      PTSUNNY   71  51  49 S3        30.13S
SMYRNA         SUNNY     69  55  60 VRB3      30.14S
SPARTA         SUNNY     72  55  56 S6        30.15R
$$
TNZ056-058-060-061-075>077-079-093>097-241500
...SOUTHERN MIDDLE TENNESSEE...

CITY           SKY/WX    TMP DP  RH WIND       PRES   REMARKS
COLUMBIA       SUNNY     70  70 100 CALM      30.11S
FAYETTEVILLE   SUNNY     72  57  60 S7        30.15R
LEWISBURG      SUNNY     70  56  61 CALM      30.12R
MCMINNVILLE    SUNNY     72  57  60 CALM      30.15S
SHELBYVILLE    SUNNY     73  54  49 SE6       30.15S
TULLAHOMA      SUNNY     72  52  49 S6        30.16S
WINCHESTER     SUNNY     73  54  49 SE7       30.15R
$$


...KEY TO REMARKS...
VSB - VISIBILITY IN MILES
WCI - WIND CHILL INDEX
HX  - HEAT INDEX







000
ASUS44 KOHX 241210
RWROHX
MIDDLE TENNESSEE HOURLY WEATHER ROUNDUP
NATIONAL WEATHER SERVICE NASHVILLE TN
700 AM CDT TUE MAY 24 2016

NOTE: "FAIR" INDICATES FEW OR NO CLOUDS BELOW 12,000 FEET WITH
NO SIGNIFICANT WEATHER AND/OR OBSTRUCTIONS TO VISIBILITY.

* THESE REPORTS ARE NOT UNDER NWS QUALITY CONTROL AND MAY NOT
  REPORT WEATHER SUCH AS PRECIPITATION AND FOG.


TNZ005>011-023>034-057-059-062>066-078-080-241300
...NORTHERN MIDDLE TENNESSEE...

CITY           SKY/WX    TMP DP  RH WIND       PRES   REMARKS
CLARKSVILLE    SUNNY     58  54  86 E5        30.07R
CROSSVILLE     SUNNY     57  49  74 CALM      30.16R
DICKSON        SUNNY     64  54  68 CALM      30.08R
LEBANON        SUNNY     55  50  83 CALM      30.08
NASHVILLE      MOSUNNY   59  53  80 CALM      30.10R
SMYRNA         SUNNY     56  53  89 CALM      30.11R
SPARTA         SUNNY     54  52  94 CALM      30.11R
$$
TNZ056-058-060-061-075>077-079-093>097-241300
...SOUTHERN MIDDLE TENNESSEE...

CITY           SKY/WX    TMP DP  RH WIND       PRES   REMARKS
COLUMBIA       SUNNY    N/A N/A N/A CALM      30.08R
FAYETTEVILLE   SUNNY     61  54  77 CALM      30.11R
LEWISBURG      SUNNY     55  53  93 CALM      30.09R
MCMINNVILLE    SUNNY     54  54 100 CALM      30.12R
SHELBYVILLE    SUNNY     61  54  77 SE3       30.11R
TULLAHOMA      SUNNY     57  55  94 E3        30.12R
WINCHESTER     SUNNY     61  52  72 SE3       30.11S
$$


...KEY TO REMARKS...
VSB - VISIBILITY IN MILES
WCI - WIND CHILL INDEX
HX  - HEAT INDEX







000
ASUS44 KOHX 241110
RWROHX
MIDDLE TENNESSEE HOURLY WEATHER ROUNDUP
NATIONAL WEATHER SERVICE NASHVILLE TN
600 AM CDT TUE MAY 24 2016

NOTE: "FAIR" INDICATES FEW OR NO CLOUDS BELOW 12,000 FEET WITH
NO SIGNIFICANT WEATHER AND/OR OBSTRUCTIONS TO VISIBILITY.

* THESE REPORTS ARE NOT UNDER NWS QUALITY CONTROL AND MAY NOT
  REPORT WEATHER SUCH AS PRECIPITATION AND FOG.


TNZ005>011-023>034-057-059-062>066-078-080-241200
...NORTHERN MIDDLE TENNESSEE...

CITY           SKY/WX    TMP DP  RH WIND       PRES   REMARKS
CLARKSVILLE    CLOUDY    54  52  93 CALM      30.06R
CROSSVILLE     CLEAR     50  45  83 CALM      30.14R
DICKSON        CLOUDY    61  52  72 CALM      30.06R
NASHVILLE      PTCLDY    56  52  86 CALM      30.08R
SMYRNA         CLEAR     51  51 100 S3        30.09R
SPARTA         CLEAR     46  46 100 CALM      30.10R
$$
TNZ056-058-060-061-075>077-079-093>097-241200
...SOUTHERN MIDDLE TENNESSEE...

CITY           SKY/WX    TMP DP  RH WIND       PRES   REMARKS
COLUMBIA       CLEAR    N/A N/A N/A CALM      30.06S
FAYETTEVILLE   CLEAR     57  52  82 CALM      30.08S
LEWISBURG      CLEAR     50  50 100 CALM      30.07R
MCMINNVILLE    CLEAR     48  48 100 CALM      30.11R
SHELBYVILLE    CLEAR     55  52  88 E5        30.09S
TULLAHOMA      CLEAR     50  50 100 CALM      30.10S
WINCHESTER     CLEAR     48  46  93 CALM      30.11R
$$


...KEY TO REMARKS...
VSB - VISIBILITY IN MILES
WCI - WIND CHILL INDEX
HX  - HEAT INDEX







000
ASUS44 KOHX 241010
RWROHX
MIDDLE TENNESSEE HOURLY WEATHER ROUNDUP
NATIONAL WEATHER SERVICE NASHVILLE TN
500 AM CDT TUE MAY 24 2016

NOTE: "FAIR" INDICATES FEW OR NO CLOUDS BELOW 12,000 FEET WITH
NO SIGNIFICANT WEATHER AND/OR OBSTRUCTIONS TO VISIBILITY.

* THESE REPORTS ARE NOT UNDER NWS QUALITY CONTROL AND MAY NOT
  REPORT WEATHER SUCH AS PRECIPITATION AND FOG.


TNZ005>011-023>034-057-059-062>066-078-080-241100
...NORTHERN MIDDLE TENNESSEE...

CITY           SKY/WX    TMP DP  RH WIND       PRES   REMARKS
CLARKSVILLE    MOCLDY    54  51  90 E3        30.05R
CROSSVILLE     CLEAR     49  44  83 CALM      30.11R
DICKSON        MOCLDY    57  50  77 CALM      30.05R
LEBANON        CLEAR     50  49  96 CALM      30.05R
NASHVILLE      PTCLDY    58  51  78 NE3       30.06R
SMYRNA         CLEAR     52  51  96 CALM      30.08R
SPARTA         CLEAR     46  46 100 CALM      30.07R
$$
TNZ056-058-060-061-075>077-079-093>097-241100
...SOUTHERN MIDDLE TENNESSEE...

CITY           SKY/WX    TMP DP  RH WIND       PRES   REMARKS
COLUMBIA       CLEAR    N/A N/A N/A CALM      30.05R
FAYETTEVILLE   MOCLDY    57  54  88 CALM      30.08R
LEWISBURG      CLEAR     51  51 100 CALM      30.06R
MCMINNVILLE    CLEAR     48  48 100 CALM      30.09R
SHELBYVILLE    MOCLDY    54  50  87 CALM      30.08R
TULLAHOMA      CLEAR     48  48 100 CALM      30.09R
WINCHESTER     CLEAR     52  48  87 CALM      30.09R
$$


...KEY TO REMARKS...
VSB - VISIBILITY IN MILES
WCI - WIND CHILL INDEX
HX  - HEAT INDEX







000
ASUS44 KOHX 240610
RWROHX
MIDDLE TENNESSEE HOURLY WEATHER ROUNDUP
NATIONAL WEATHER SERVICE NASHVILLE TN
100 AM CDT TUE MAY 24 2016

NOTE: "FAIR" INDICATES FEW OR NO CLOUDS BELOW 12,000 FEET WITH
NO SIGNIFICANT WEATHER AND/OR OBSTRUCTIONS TO VISIBILITY.

* THESE REPORTS ARE NOT UNDER NWS QUALITY CONTROL AND MAY NOT
  REPORT WEATHER SUCH AS PRECIPITATION AND FOG.


TNZ005>011-023>034-057-059-062>066-078-080-240700
...NORTHERN MIDDLE TENNESSEE...

CITY           SKY/WX    TMP DP  RH WIND       PRES   REMARKS
CLARKSVILLE    CLOUDY    61  51  70 CALM      30.00S
CROSSVILLE     CLEAR     53  45  74 CALM      30.08S
DICKSON        CLOUDY    61  54  77 E3        30.01S
LEBANON        CLEAR     55  52  90 CALM      30.01
NASHVILLE      CLEAR     60  52  74 CALM      30.02S
SMYRNA         CLEAR     56  54  93 CALM      30.03S
SPARTA         CLEAR     46  46 100 CALM      30.03S
$$
TNZ056-058-060-061-075>077-079-093>097-240700
...SOUTHERN MIDDLE TENNESSEE...

CITY           SKY/WX    TMP DP  RH WIND       PRES   REMARKS
COLUMBIA       CLEAR    N/A N/A N/A CALM      30.00F
FAYETTEVILLE   PTCLDY    63  50  63 NE3       30.02S
LEWISBURG      CLEAR     55  53  93 CALM      30.02S
MCMINNVILLE    CLEAR     52  52 100 CALM      30.04S
SHELBYVILLE    CLEAR     57  50  77 E5        30.03S
TULLAHOMA      CLEAR     52  52 100 CALM      30.05R
WINCHESTER     CLEAR     55  50  82 CALM      30.04S
$$


...KEY TO REMARKS...
VSB - VISIBILITY IN MILES
WCI - WIND CHILL INDEX
HX  - HEAT INDEX







000
ASUS44 KOHX 240510
RWROHX
MIDDLE TENNESSEE HOURLY WEATHER ROUNDUP
NATIONAL WEATHER SERVICE NASHVILLE TN
1200 AM CDT TUE MAY 24 2016

NOTE: "FAIR" INDICATES FEW OR NO CLOUDS BELOW 12,000 FEET WITH
NO SIGNIFICANT WEATHER AND/OR OBSTRUCTIONS TO VISIBILITY.

* THESE REPORTS ARE NOT UNDER NWS QUALITY CONTROL AND MAY NOT
  REPORT WEATHER SUCH AS PRECIPITATION AND FOG.


TNZ005>011-023>034-057-059-062>066-078-080-240600
...NORTHERN MIDDLE TENNESSEE...

CITY           SKY/WX    TMP DP  RH WIND       PRES   REMARKS
CLARKSVILLE    CLOUDY    62  51  67 CALM      30.00S
CROSSVILLE     CLEAR     60  45  57 CALM      30.08S
DICKSON        CLOUDY    61  52  72 CALM      30.01S
NASHVILLE      CLEAR     63  52  67 CALM      30.02S
SMYRNA         CLEAR     58  53  83 NW3       30.03S
SPARTA         CLEAR     48  46  93 CALM      30.03F
$$
TNZ056-058-060-061-075>077-079-093>097-240600
...SOUTHERN MIDDLE TENNESSEE...

CITY           SKY/WX    TMP DP  RH WIND       PRES   REMARKS
COLUMBIA       CLEAR    N/A N/A N/A CALM      30.01R
FAYETTEVILLE   PTCLDY    64  52  63 NE6       30.02S
LEWISBURG      CLEAR     56  54  93 CALM      30.02F
MCMINNVILLE    CLEAR     55  54  94 CALM      30.04F
SHELBYVILLE    CLEAR     57  52  82 CALM      30.03F
TULLAHOMA      CLEAR     55  52  88 CALM      30.04F
WINCHESTER     CLEAR     55  52  88 CALM      30.04S
$$


...KEY TO REMARKS...
VSB - VISIBILITY IN MILES
WCI - WIND CHILL INDEX
HX  - HEAT INDEX







    US Dept of Commerce
    National Oceanic and Atmospheric Administration
    National Weather Service
    1325 East West Highway
    Silver Spring, MD 20910
    Page Author: NWS Internet Services Team
Disclaimer
Information Quality
Credits
Glossary
Privacy Policy
Freedom of Information Act (FOIA)
About Us
Career Opportunities